Theta_e
342 352 354 357 363 364 368 362 359 355 349 352 352 354 356 356 358 361 351 351 350 350 351 351 349 350 349 350 348 346 351 353 351 351 349 343 342 342 342 342 343 344 345 349 351 349 350 349 346
351 354 358 358 366 369 364 355 362 355 347 350 353 354 355 357 351 351 349 351 349 347 352 350 349 350 348 349 349 349 353 352 350 348 349 345 342 342 344 343 344 343 345 346 347 347 345 345 348
354 355 357 361 362 368 362 362 358 355 347 349 353 352 354 355 350 349 348 351 349 352 351 349 349 349 353 352 350 349 353 351 346 347 347 349 342 346 350 348 344 346 344 345 346 350 351 351 351
353 353 356 361 364 364 360 356 358 354 350 348 351 357 352 351 349 349 349 348 352 351 350 347 346 350 351 350 351 349 350 349 352 353 351 350 345 350 349 351 350 347 347 350 352 352 352 352 350
353 356 362 363 364 365 354 353 354 354 352 353 354 356 354 349 348 347 349 349 351 353 348 349 345 348 353 352 350 353 350 349 351 353 352 351 344 351 349 353 353 352 350 350 349 350 351 351 349
355 354 361 363 363 360 357 355 352 354 353 351 355 355 353 349 349 349 349 350 353 353 349 352 351 352 352 353 351 352 350 351 350 350 352 349 347 348 352 351 351 350 350 348 348 349 350 350 348
349 356 359 360 364 362 359 353 352 352 351 351 352 357 350 348 350 350 350 351 352 352 351 352 352 352 352 353 348 353 353 351 347 348 348 346 343 341 345 352 354 352 351 350 349 347 346 348 343
348 354 356 358 362 364 356 353 353 354 351 348 351 356 354 347 348 350 349 351 351 352 351 349 349 350 349 350 353 352 352 351 346 345 347 339 338 340 341 351 352 352 351 348 346 342 343 344 341
349 359 359 359 357 362 355 354 350 352 351 354 351 352 349 349 349 349 348 349 348 350 351 351 349 346 347 348 352 352 351 349 347 347 343 339 339 341 343 349 352 351 353 351 346 346 341 338 338
352 355 357 353 353 357 356 354 353 352 352 355 354 350 350 349 350 349 350 350 350 349 349 350 351 350 350 350 352 349 350 347 348 345 347 342 339 340 345 351 350 350 347 347 341 342 348 345 340
351 359 347 354 351 355 356 353 351 355 356 350 355 351 349 349 349 349 348 349 349 348 349 349 349 350 349 350 350 346 348 346 349 346 343 345 346 343 347 349 347 346 346 344 346 342 344 345 348
354 349 348 353 352 353 355 353 354 354 356 348 347 350 349 349 348 348 347 349 350 350 349 350 350 349 350 350 348 348 350 348 349 345 339 342 344 349 348 348 344 345 345 344 348 348 349 348 341
351 354 355 356 352 353 353 357 355 351 348 346 346 346 349 348 347 348 348 349 349 348 347 350 349 349 349 348 349 349 349 349 347 344 342 342 345 346 348 346 348 341 343 348 350 350 348 343 345
342 351 352 346 347 352 358 356 355 351 346 345 346 347 348 345 347 346 348 348 348 349 349 349 349 348 348 348 348 348 350 348 345 342 342 344 347 348 346 338 345 344 347 349 349 349 340 336 345
345 352 346 349 345 353 353 358 359 349 347 345 346 342 345 343 343 346 348 348 348 349 349 348 351 349 350 349 348 348 348 346 342 342 341 342 344 342 344 341 344 343 348 349 348 347 338 335 346
340 350 354 349 346 353 352 355 353 351 349 348 347 344 343 342 340 344 347 347 348 348 347 350 349 347 347 346 347 347 346 346 344 344 345 343 345 347 345 346 348 348 349 350 351 346 340 345 343
345 351 353 355 348 353 353 356 355 350 349 347 346 344 343 342 340 342 345 345 347 348 349 349 347 347 347 345 345 345 346 346 343 346 342 349 344 346 343 340 347 349 348 343 347 349 347 349 348
341 341 351 354 352 350 352 354 354 351 349 346 347 345 343 344 343 342 344 344 345 348 348 347 346 346 345 345 346 345 345 346 346 345 350 344 347 340 342 345 342 340 348 351 349 349 349 342 342
334 337 335 346 354 354 351 353 355 353 350 346 348 345 343 343 343 344 344 346 345 349 348 349 347 345 342 343 345 346 346 346 343 342 340 339 347 346 343 337 339 340 347 349 350 354 346 345 348
329 332 333 339 347 344 343 345 355 355 352 347 348 346 344 344 344 344 343 346 346 348 346 348 348 346 341 342 340 345 344 345 346 344 344 336 348 350 347 337 337 339 346 346 351 352 351 348 343
327 330 331 334 339 337 339 344 353 342 343 339 340 347 345 343 346 344 344 345 346 348 348 347 346 345 340 338 340 344 346 347 345 346 347 346 351 350 347 341 338 338 341 345 349 354 353 342 336
326 328 332 335 332 334 335 339 352 346 347 347 349 349 344 339 346 344 345 344 347 347 349 347 345 345 342 340 340 344 345 344 345 345 347 348 347 352 351 341 350 346 346 347 351 351 353 346 335
326 328 330 333 332 330 332 342 352 349 349 345 348 347 346 345 346 346 346 345 348 348 349 348 346 347 348 347 343 345 344 344 339 343 349 350 348 350 353 351 351 352 351 354 354 353 352 352 349
327 327 327 331 329 333 335 342 352 353 351 345 344 342 344 344 346 347 345 344 349 348 349 350 347 346 349 348 347 348 347 343 347 349 347 349 349 346 346 350 352 350 352 354 353 356 354 351 352
325 324 325 333 333 335 340 339 342 346 346 343 342 337 339 343 344 347 346 345 349 348 350 351 350 349 346 349 348 348 350 348 349 347 350 348 348 348 346 348 352 351 349 349 354 354 353 352 354
323 321 325 333 334 336 338 341 340 341 339 343 343 343 344 345 344 345 346 346 349 349 349 351 352 351 349 350 349 347 344 347 348 346 346 347 350 349 348 345 350 351 353 352 349 351 349 352 352
323 323 321 323 326 327 330 339 342 339 340 340 343 349 350 347 345 345 345 345 347 350 350 350 351 353 351 351 351 348 347 348 349 339 343 349 349 348 351 350 349 349 349 349 352 352 350 351 352
322 322 321 325 331 334 331 341 346 344 340 341 343 345 341 347 346 346 345 344 347 350 351 352 350 351 351 352 351 352 350 349 348 351 350 348 346 348 350 349 350 350 350 352 350 349 349 350 351
323 321 320 321 325 330 332 335 342 342 336 343 345 346 344 337 344 344 345 345 347 350 351 352 353 352 351 352 351 351 350 350 347 349 349 346 343 351 350 349 348 350 351 351 354 352 349 352 352
327 320 319 323 325 328 329 330 341 340 341 342 340 339 338 335 337 343 345 345 348 350 353 353 354 353 352 351 353 350 350 350 350 350 348 348 349 350 349 348 347 349 349 351 352 352 352 351 353
Wind_Speed
9 8 9 6 4 3 3 7 3 3 9 16 16 13 13 4 4 6 16 33 27 26 24 22 19 18 17 18 16 15 14 15 15 16 16 17 16 15 14 13 12 11 10 10 9 10 9 8 5
6 9 10 3 3 3 2 9 13 11 6 19 20 20 16 13 13 13 16 28 27 26 23 22 21 20 18 16 16 14 13 14 14 15 15 14 14 12 12 12 11 11 10 10 10 9 8 8 8
7 4 2 2 2 3 1 3 17 16 9 13 16 12 8 10 14 11 28 25 26 26 21 22 20 20 18 17 15 14 13 13 13 13 14 13 12 12 11 12 12 11 10 10 9 8 8 8 8
6 5 4 3 4 5 7 10 10 5 8 15 16 13 8 9 7 21 31 25 26 22 20 19 18 17 17 17 15 13 13 13 12 12 12 12 11 12 12 11 12 11 11 10 10 10 9 9 8
14 3 2 3 1 5 8 10 5 5 5 19 18 10 7 19 26 34 31 26 27 23 22 19 18 16 15 14 14 13 12 11 11 11 11 11 11 11 14 11 11 10 9 9 9 9 8 8 7
1 3 2 3 6 6 3 4 4 5 6 17 20 13 5 25 24 24 25 26 31 24 24 21 19 17 15 14 13 12 11 11 11 10 11 11 12 12 12 10 9 9 8 8 9 10 9 7 7
4 3 2 5 3 2 4 3 4 2 7 12 14 8 7 12 22 21 22 24 21 22 21 22 20 17 15 13 12 11 11 9 9 9 10 11 11 10 10 8 7 7 7 8 9 10 9 8 8
4 4 5 6 0 2 2 4 4 3 4 10 15 7 8 7 24 23 18 20 20 23 17 18 19 18 17 15 13 12 10 10 10 9 12 8 9 8 6 6 4 5 6 7 8 9 9 10 8
5 4 4 6 3 3 2 4 3 3 6 18 11 18 17 19 21 22 26 19 20 18 19 19 16 17 15 15 14 12 11 11 11 11 10 7 7 5 4 2 2 3 5 5 6 7 8 8 8
5 4 3 7 7 4 5 6 3 2 9 17 18 23 24 22 18 17 18 16 17 18 17 20 16 17 17 16 16 15 14 12 12 12 10 8 5 2 3 4 4 5 3 5 3 4 5 6 6
1 7 6 2 5 7 5 4 3 2 5 8 7 17 18 21 18 15 17 23 20 17 17 14 14 18 20 18 17 15 14 13 12 11 10 6 4 1 3 5 9 8 5 7 5 4 5 2 2
6 8 4 7 6 3 5 6 6 3 5 5 9 12 17 14 15 16 15 20 18 17 15 12 18 19 18 18 20 19 17 16 15 10 9 8 2 3 6 6 7 10 8 9 4 4 4 3 12
2 6 12 15 5 7 11 9 5 5 7 14 18 14 17 15 15 24 21 19 22 20 16 13 14 16 21 16 19 20 20 17 14 11 7 6 1 2 7 10 13 12 11 5 3 9 1 3 10
3 11 10 7 2 7 10 8 6 9 12 15 13 20 16 13 19 19 22 20 24 20 18 15 12 11 13 17 20 21 18 17 13 11 9 6 0 5 5 2 15 16 6 3 2 2 6 9 11
7 12 27 18 5 4 9 7 8 10 15 13 13 9 15 14 20 24 27 27 26 23 21 15 14 11 14 17 21 19 16 16 13 9 10 9 3 5 4 3 8 14 13 5 7 5 1 2 5
2 7 8 24 9 6 8 5 7 15 13 15 17 7 4 14 15 29 33 33 28 24 23 19 14 12 14 17 22 19 15 12 12 11 7 6 2 3 8 6 9 15 7 5 6 11 3 1 4
5 5 5 6 11 5 10 5 13 15 12 12 6 11 11 7 12 23 29 28 30 31 25 24 17 15 15 18 18 17 18 10 11 9 9 5 6 3 6 6 14 1 5 2 3 3 13 13 12
9 5 9 6 9 13 13 9 7 12 11 8 6 5 6 10 13 24 27 35 29 27 24 22 20 18 17 20 15 13 12 12 11 13 9 7 9 13 12 5 7 2 3 3 6 12 15 11 7
15 8 9 10 14 10 11 10 13 14 3 9 8 8 10 7 11 23 26 30 32 27 28 26 21 20 20 22 17 16 16 10 11 13 8 8 5 6 5 8 4 7 7 4 2 1 11 9 6
11 5 9 6 10 11 8 7 15 15 7 1 3 10 15 9 9 12 19 31 32 31 28 26 21 23 22 24 17 17 15 9 11 11 8 12 8 8 7 9 9 11 8 7 4 7 9 9 2
11 5 8 10 4 3 3 2 9 3 3 5 11 12 9 12 13 14 12 27 31 31 32 28 24 22 23 22 17 16 7 6 10 6 11 10 10 10 8 16 12 2 1 1 1 8 8 14 17
7 11 9 7 7 3 3 4 3 6 5 6 9 15 11 14 16 13 16 20 30 30 33 29 26 24 21 20 21 16 13 11 12 11 14 13 10 12 10 17 9 10 4 4 2 6 12 14 19
10 8 9 4 5 6 7 2 3 1 7 11 14 10 14 16 21 18 19 22 30 33 33 32 28 25 21 22 20 17 15 14 8 13 17 15 15 10 10 11 13 8 4 2 2 2 6 11 9
7 6 9 4 1 4 5 2 4 7 7 4 5 9 19 13 21 21 29 27 32 32 31 33 32 29 23 22 20 19 16 12 5 3 16 14 17 16 15 11 13 10 7 3 1 2 2 3 7
6 4 4 5 3 7 5 1 7 15 18 27 19 22 20 14 18 22 21 23 31 32 32 32 34 30 27 23 22 21 16 10 7 5 15 23 18 17 15 16 15 13 10 9 4 1 3 1 2
7 6 5 7 4 6 5 7 7 13 12 25 23 21 18 24 17 21 20 25 33 35 34 32 34 30 30 26 23 20 18 14 12 14 12 10 2 14 15 21 17 13 8 9 7 5 5 4 6
8 6 9 7 6 6 6 6 7 11 9 8 19 23 24 21 17 22 19 28 34 35 36 35 35 32 32 29 24 20 17 15 12 14 13 10 2 2 6 24 17 12 11 11 9 7 6 7 8
10 7 3 4 3 7 7 4 5 5 7 12 12 22 11 15 20 21 21 27 31 34 38 36 37 35 35 30 26 22 20 18 17 13 11 12 8 5 11 14 16 12 12 10 9 9 9 9 12
2 4 5 2 3 3 4 4 6 11 6 9 11 16 11 1 14 18 16 27 31 31 34 34 33 32 31 29 27 24 23 22 20 17 15 16 11 6 7 9 9 11 11 11 13 13 13 13 7
6 11 10 5 9 4 4 6 6 8 11 13 9 11 9 10 4 15 16 27 27 30 33 32 32 33 34 31 30 28 24 22 21 20 18 13 13 12 14 13 12 13 13 12 13 12 13 15 12
Wind_Direction
277 288 292 279 53 40 31 334 316 261 60 77 66 76 87 88 136 138 131 139 139 140 139 140 140 137 137 133 135 130 127 122 120 122 133 133 133 134 139 142 147 152 155 165 171 173 182 184 176
274 285 242 289 61 66 136 244 285 284 102 103 94 88 68 81 86 118 97 132 141 140 138 138 139 136 133 134 133 134 132 132 134 136 142 147 145 145 149 151 150 153 155 164 173 176 178 162 167
273 253 26 40 106 93 205 290 284 293 64 109 97 56 71 117 115 132 137 136 136 136 146 139 139 136 133 133 134 134 133 131 140 151 155 157 149 137 145 148 145 152 151 155 155 157 162 153 166
249 35 31 41 318 134 178 226 270 312 358 102 111 74 71 125 99 135 141 140 137 145 148 147 148 143 141 142 139 139 139 144 154 159 161 162 139 135 134 137 137 139 142 148 158 161 158 146 149
260 68 67 298 111 210 199 205 260 352 335 101 97 91 87 97 133 143 150 148 148 150 151 145 146 145 144 143 142 146 149 157 164 172 171 161 145 142 133 136 141 142 149 158 165 164 162 152 166
247 102 351 328 331 96 54 321 82 3 324 108 108 104 84 128 132 137 144 143 147 149 150 148 149 148 149 146 148 153 156 166 177 181 174 166 150 144 136 144 146 142 157 167 174 171 167 170 183
231 85 309 310 280 85 130 287 113 285 328 97 130 109 129 127 140 142 141 145 152 148 153 158 155 153 151 152 155 157 163 167 180 180 172 160 153 147 151 155 145 147 164 177 184 179 178 185 189
100 85 16 337 209 75 138 153 301 52 353 104 137 140 145 142 106 138 144 144 147 154 159 162 163 162 163 164 163 167 172 178 189 182 166 162 161 156 158 143 146 159 174 181 185 187 191 201 207
101 63 77 268 316 150 242 156 198 356 333 64 87 114 126 127 129 121 129 136 154 162 165 165 167 171 172 172 170 173 180 186 193 181 165 160 175 150 98 99 239 199 205 197 195 191 204 206 216
95 57 232 241 42 135 192 104 107 45 22 69 107 121 137 143 145 141 142 146 153 152 161 172 182 176 173 177 176 182 184 190 193 188 180 173 164 147 356 323 266 250 232 227 216 197 224 229 228
72 181 233 296 68 85 143 73 63 83 47 50 164 139 151 160 156 170 172 164 169 176 168 183 184 188 184 184 185 188 186 184 197 201 195 188 179 132 300 304 260 259 246 240 256 253 232 217 315
112 246 240 345 102 68 109 94 74 20 187 131 242 188 166 160 169 175 177 172 159 173 167 163 172 184 181 189 187 189 194 199 201 202 187 204 131 36 320 291 249 286 263 250 229 286 292 230 220
189 91 71 294 201 135 93 92 101 110 176 185 238 218 171 166 184 162 164 158 164 171 176 169 179 189 189 189 196 196 203 204 203 191 195 220 174 26 2 335 266 275 256 258 310 301 116 189 169
190 95 138 199 294 127 130 143 121 237 229 226 236 172 175 154 173 150 157 173 172 168 166 164 171 181 192 191 193 191 202 199 202 190 200 191 183 47 28 180 214 258 240 205 19 193 184 147 201
187 58 12 317 317 196 155 136 223 196 207 229 253 217 159 162 165 163 173 166 172 153 159 162 168 179 180 184 184 192 197 209 199 187 175 187 288 49 15 163 262 273 268 252 212 223 89 71 177
244 76 114 258 265 241 133 240 195 189 186 223 242 151 144 156 141 147 162 166 162 157 168 160 160 171 175 174 178 187 196 198 201 179 160 175 122 154 170 218 290 275 260 244 166 149 106 10 166
205 187 182 255 199 196 201 227 189 174 183 201 225 156 175 174 149 155 160 155 153 165 159 157 161 157 161 166 174 181 186 200 191 201 177 156 161 124 116 223 313 15 150 120 136 224 224 210 219
236 299 177 195 189 211 201 233 175 176 174 193 213 173 170 159 168 166 152 150 151 154 153 153 157 160 164 158 158 175 176 178 168 160 167 169 165 129 135 358 4 328 176 148 134 178 178 175 139
278 236 324 184 199 196 196 217 188 158 304 228 179 193 181 215 167 168 149 147 150 150 150 150 154 161 160 161 154 161 173 163 178 178 170 159 167 178 153 26 52 66 40 75 86 258 160 130 127
302 337 305 278 182 190 216 246 170 148 172 250 262 199 198 202 158 174 159 152 152 155 156 154 161 167 169 174 169 164 179 173 186 190 192 174 119 143 141 96 111 15 19 40 29 46 131 152 98
286 249 265 267 217 204 204 152 128 343 211 167 253 242 216 196 173 175 182 162 156 157 158 157 161 168 172 175 173 167 177 177 188 203 209 177 157 143 125 123 110 115 140 283 45 49 91 72 51
270 294 290 336 4 275 157 261 207 171 237 226 247 219 194 206 187 182 187 170 163 163 162 163 161 173 178 180 177 179 186 197 209 200 199 197 179 166 177 171 156 196 248 296 350 57 74 124 99
269 283 293 243 275 316 287 136 53 46 223 192 207 233 220 216 179 186 183 182 167 163 165 173 169 173 184 187 187 184 194 214 177 189 187 194 179 184 171 199 185 172 190 200 270 22 66 104 143
291 268 308 284 358 313 291 186 173 186 221 192 240 197 224 233 185 178 187 184 167 166 165 171 177 174 184 193 195 193 194 202 222 313 219 208 197 197 196 175 185 201 203 216 242 247 356 22 98
313 309 306 322 335 244 230 62 223 216 188 192 200 211 213 219 190 176 180 183 162 166 168 173 178 177 183 193 198 197 194 187 204 200 166 199 201 211 213 199 203 205 200 199 194 254 305 162 329
218 203 188 253 257 265 97 227 247 210 223 189 206 211 208 220 191 181 173 173 164 167 171 175 178 179 182 193 205 211 214 206 212 216 206 209 271 220 240 216 208 202 201 192 194 230 275 288 263
241 259 235 262 276 298 251 264 38 223 272 183 187 202 204 187 172 174 172 166 169 169 172 175 178 178 185 191 201 213 210 210 221 204 220 247 183 172 207 202 199 214 214 206 200 214 242 259 251
167 213 321 309 259 269 293 322 185 93 97 84 77 70 341 183 163 165 171 170 166 166 172 174 180 179 184 190 196 204 210 214 220 229 235 240 233 157 164 182 195 203 218 220 221 221 237 260 254
193 216 252 228 193 220 300 283 215 183 177 107 103 119 222 47 175 165 168 166 162 162 168 172 174 176 183 188 196 203 206 215 220 227 237 236 237 202 221 223 217 228 218 230 239 225 244 255 265
238 197 192 151 277 240 207 272 149 184 127 126 129 130 188 245 228 175 162 168 160 156 164 170 172 177 184 187 198 202 206 209 219 222 225 232 236 239 235 239 242 245 240 236 246 243 254 263 259